Location: ??????
(41.3164°N, 22.6615°E)
Time: 02:19:45
(UTC+00:00)

STRAND 1 - Pass Details

Date: 30 June 2022
Orbit: 766 x 781 km, 98.4° (Epoch: 17 August)

Event Time Altitude Azimuth Distance (km) Brightness Sun altitude
Rises 18:35:46 0° 1° (N) 3,270 ? -5.3°
Reaches altitude 10° 18:38:25 10° 349° (N) 2,335 ? -5.7°
Maximum altitude 18:42:35 26° 294° (WNW) 1,505 ? -6.3°
Drops below altitude 10° 18:46:44 10° 240° (WSW) 2,315 ? -6.9°
Sets 18:49:21 0° 228° (SW) 3,235 ? -7.3°
